Cosmos 1508 Rocket - Orbit

View from above orbital plane
View from above orbital plane
View from above satellite
View from above satellite

Ground track
Ground track

The orbit data is extracted from the following two-line orbital elements,

1 14484U 83111B   13145.52915137  .00030560  00000-0  68847-3 0  2164
2 14484 082.8293 336.0581 0303563 194.4524 251.8133 15.06810979513761
Epoch (UTC): 25 May 2013 12:41:58
Eccentricity: 0.0303563
inclination: 82.8293°
perigee height: 336 km
apogee height: 756 km
right ascension of ascending node: 336.0581°
argument of perigee: 194.4524°
revolutions per day: 15.06810979
mean anomaly at epoch: 251.8133°
orbit number at epoch: 51376

The dashed part of the orbit path shows where the satellite is in the earth's shadow,  

Developed and maintained by Chris Peat, Heavens-Above GmbH. Please read the updated FAQ before sending e-mail. Imprint. DLR